Location: Plainartige
(45.6866°N, 1.7993°E)
Time: 14:14:08
(UTC+00:00)

YAOGAN 1 - Pass Details

Date: 03 March 2021
Orbit: 618 x 620 km, 97.9° (Epoch: 11 April)

Event Time Altitude Azimuth Distance (km) Brightness Sun altitude
Rises 19:13:38 0° 189° (S) 2,884 6.0 -16.7°
Reaches altitude 10° 19:15:59 10° 199° (SSW) 1,983 5.3 -17.1°
Maximum altitude 19:19:53 33° 263° (W) 1,056 4.4 -17.8°
Drops below altitude 10° 19:23:49 10° 328° (NNW) 1,998 5.7 -18.4°
Sets 19:26:12 0° 338° (NNW) 2,909 6.5 -18.8°
